Date String (YYYY-MM-DD hh:mm:ss) UTC,Instrument flags,Ambient pressure (hPa),Sample flow (lpm),Bypass flow (lpm),Sample temperature (°C),Ambient temperature (°C),ASC tube jacket temperature (°C),LED temperature (°C),Box temperature (°C),Sample RH (%),Span deviation,Mass concentration (μg/m³),Mass concentration (μg/m³),Mass concentration (μg/m³)
DateTimeUTC,F1_M11,P_M11,Q1_M11,Q2_M11,T1_M11,T2_M11,T3_M11,T4_M11,T5_M11,U1_M11,ZSPAN_M11,X0_M11,X2_M11,X1_M11
2021-11-29 01:00:00,,0829.9,4.99,0.00,30.0,29.2,00.0,39.0,31.7,09.8,0000.0,0001.46,0000.73,0000.37
2021-11-29 01:01:00,,0829.7,4.99,0.00,30.0,29.2,00.0,39.0,31.7,09.8,0000.0,0001.55,0000.70,0000.37
2021-11-29 01:02:00,,0829.6,5.00,0.00,30.0,29.2,00.0,39.0,31.7,09.8,0000.0,0001.57,0000.70,0000.36
2021-11-29 01:03:00,,0829.6,5.00,0.00,30.0,29.2,00.0,39.0,31.8,09.8,0000.0,0001.56,0000.71,0000.36
2021-11-29 01:04:00,,0829.7,5.00,0.00,30.0,29.2,00.0,39.0,31.8,09.8,0000.0,0001.51,0000.70,0000.35
2021-11-29 01:05:00,,0829.6,5.00,0.00,30.0,29.2,00.0,39.0,31.8,09.8,0000.0,0001.58,0000.72,0000.35
2021-11-29 01:06:00,,0829.6,5.01,0.00,30.0,29.2,00.0,39.0,31.7,09.8,0000.0,0001.59,0000.72,0000.35
2021-11-29 01:07:00,,0829.7,5.01,0.00,30.0,29.2,00.0,39.0,31.7,09.8,0000.0,0002.33,0000.76,0000.35
2021-11-29 01:08:00,,0829.5,5.00,0.00,30.0,29.2,00.0,39.0,31.7,09.8,0000.0,0002.96,0000.74,0000.36
2021-11-29 01:09:00,,0829.5,5.00,0.00,30.0,29.2,00.0,39.0,31.7,09.8,0000.0,0003.12,0000.78,0000.36
2021-11-29 01:10:00,,0829.6,5.01,0.00,30.0,29.2,00.0,39.0,31.7,09.8,0000.0,0002.94,0000.71,0000.35
2021-11-29 01:11:00,,0829.6,5.01,0.00,30.0,29.2,00.0,39.0,31.7,09.8,0000.0,0002.89,0000.71,0000.35
2021-11-29 01:12:00,,0829.7,5.00,0.00,30.0,29.2,00.0,39.0,31.7,09.8,0000.0,0002.84,0000.72,0000.34
2021-11-29 01:13:00,,0829.7,4.99,0.00,30.0,29.2,00.0,39.0,31.7,09.9,0000.0,0002.86,0000.72,0000.34
2021-11-29 01:14:00,,0829.6,5.00,0.00,30.0,29.2,00.0,39.0,31.7,09.8,0000.0,0002.77,0000.69,0000.34
2021-11-29 01:15:00,,0829.9,5.01,0.00,30.0,29.2,00.0,39.0,31.8,09.9,0000.0,0002.70,0000.66,0000.33
2021-11-29 01:16:00,,0829.7,5.00,0.00,30.0,29.2,00.0,39.0,31.8,09.9,0000.0,0002.65,0000.65,0000.33
2021-11-29 01:17:00,,0829.7,5.00,0.00,30.0,29.2,00.0,39.0,31.8,09.9,0000.0,0002.74,0000.67,0000.33
2021-11-29 01:18:00,,0829.6,5.01,0.00,30.0,29.2,00.0,39.0,31.8,09.9,0000.0,0002.18,0000.71,0000.32
2021-11-29 01:19:00,,0829.7,5.00,0.00,30.0,29.2,00.0,39.0,31.8,09.9,0000.0,0001.52,0000.72,0000.33
2021-11-29 01:20:00,,0829.6,5.01,0.00,30.1,29.3,00.0,39.0,31.8,09.9,0000.0,0001.29,0000.65,0000.32
2021-11-29 01:21:00,,0829.6,4.99,0.00,30.1,29.3,00.0,39.0,31.8,09.9,0000.0,0001.59,0000.63,0000.31
2021-11-29 01:22:00,,0829.7,5.00,0.00,30.1,29.3,00.0,39.0,31.8,09.9,0000.0,0002.79,0000.60,0000.31
2021-11-29 01:23:00,,0829.6,5.01,0.00,30.1,29.3,00.0,39.0,31.8,09.8,0000.0,0003.23,0000.56,0000.31
2021-11-29 01:24:00,,0829.7,4.98,0.00,30.1,29.3,00.0,39.0,31.8,09.9,0000.0,0003.23,0000.56,0000.31
2021-11-29 01:25:00,,0829.7,5.00,0.00,30.1,29.3,00.0,39.0,31.8,09.9,0000.0,0003.65,0000.58,0000.31
2021-11-29 01:26:00,,0829.8,5.01,0.00,30.1,29.3,00.0,39.0,31.8,09.9,0000.0,0004.31,0000.58,0000.31
2021-11-29 01:27:00,,0829.8,5.01,0.00,30.1,29.3,00.0,39.0,31.8,09.8,0000.0,0004.30,0000.57,0000.31
2021-11-29 01:28:00,,0829.7,5.00,0.00,30.1,29.3,00.0,39.0,31.8,09.8,0000.0,0004.26,0000.54,0000.31
2021-11-29 01:29:00,,0829.6,5.00,0.00,30.1,29.3,00.0,39.0,31.8,09.8,0000.0,0004.11,0000.48,0000.32
2021-11-29 01:30:00,,0829.6,5.01,0.00,30.1,29.2,00.0,39.0,31.8,09.8,0000.0,0004.03,0000.45,0000.31
2021-11-29 01:31:00,,0829.6,4.99,0.00,30.1,29.2,00.0,39.0,31.8,09.8,0000.0,0004.04,0000.46,0000.31
2021-11-29 01:32:00,,0829.7,5.02,0.00,30.1,29.3,00.0,39.0,31.8,09.9,0000.0,0003.83,0000.49,0000.32
2021-11-29 01:33:00,,0829.6,4.99,0.00,30.1,29.2,00.0,39.0,31.8,09.8,0000.0,0002.41,0000.49,0000.32
2021-11-29 01:34:00,,0829.6,5.00,0.00,30.1,29.2,00.0,39.0,31.8,09.8,0000.0,0001.92,0000.50,0000.31
2021-11-29 01:35:00,,0829.7,5.00,0.00,30.1,29.2,00.0,39.0,31.7,09.8,0000.0,0001.93,0000.48,0000.31
2021-11-29 01:36:00,,0830.0,5.00,0.00,30.1,29.2,00.0,39.0,31.8,09.9,0000.0,0001.58,0000.51,0000.31
2021-11-29 01:37:00,,0829.6,4.99,0.00,30.0,29.2,00.0,39.0,31.7,09.9,0000.0,0001.11,0000.54,0000.31
2021-11-29 01:38:00,,0829.7,5.00,0.00,30.0,29.2,00.0,39.0,31.8,09.9,0000.0,0001.12,0000.56,0000.31
2021-11-29 01:39:00,,0829.7,5.00,0.00,30.0,29.2,00.0,39.0,31.7,09.8,0000.0,0001.08,0000.56,0000.31
2021-11-29 01:40:00,,0829.6,5.00,0.00,30.0,29.2,00.0,39.0,31.7,09.8,0000.0,0001.15,0000.57,0000.31
2021-11-29 01:41:00,,0829.8,5.01,0.00,30.0,29.2,00.0,39.0,31.7,09.8,0000.0,0001.93,0000.58,0000.30
2021-11-29 01:42:00,,0829.7,4.99,0.00,30.1,29.2,00.0,39.0,31.7,09.8,0000.0,0001.99,0000.57,0000.30
2021-11-29 01:43:00,,0829.5,5.00,0.00,30.0,29.2,00.0,39.0,31.7,09.8,0000.0,0002.02,0000.56,0000.30
2021-11-29 01:44:00,,0829.5,5.00,0.00,30.0,29.2,00.0,39.0,31.8,09.8,0000.0,0002.25,0000.58,0000.30
2021-11-29 01:45:00,,0829.6,4.99,0.00,30.0,29.2,00.0,39.0,31.7,09.9,0000.0,0002.25,0000.58,0000.30
2021-11-29 01:46:00,,0829.6,5.01,0.00,30.0,29.2,00.0,39.0,31.7,09.9,0000.0,0002.21,0000.58,0000.30
2021-11-29 01:47:00,,0829.6,4.99,0.00,30.0,29.2,00.0,39.0,31.7,09.8,0000.0,0002.02,0000.54,0000.30
2021-11-29 01:48:00,,0829.6,5.00,0.00,30.0,29.2,00.0,39.0,31.8,09.8,0000.0,0002.06,0000.57,0000.30
2021-11-29 01:49:00,,0829.7,5.00,0.00,30.0,29.2,00.0,39.0,31.8,09.8,0000.0,0002.08,0000.57,0000.30
2021-11-29 01:50:00,,0829.7,5.01,0.00,30.1,29.2,00.0,39.0,31.7,09.8,0000.0,0002.17,0000.58,0000.31
2021-11-29 01:51:00,,0829.6,4.99,0.00,30.1,29.2,00.0,39.0,31.7,09.8,0000.0,0002.09,0000.57,0000.31
2021-11-29 01:52:00,,0829.7,5.00,0.00,30.0,29.2,00.0,39.0,31.8,09.8,0000.0,0001.36,0000.57,0000.32
2021-11-29 01:53:00,,0829.6,5.00,0.00,30.1,29.2,00.0,39.0,31.8,09.8,0000.0,0001.42,0000.58,0000.32
2021-11-29 01:54:00,,0829.6,5.01,0.00,30.1,29.2,00.0,39.0,31.8,09.8,0000.0,0001.39,0000.59,0000.33
2021-11-29 01:55:00,,0829.6,4.99,0.00,30.1,29.2,00.0,39.0,31.7,09.8,0000.0,0001.21,0000.59,0000.33
2021-11-29 01:56:00,,0829.7,5.00,0.00,30.1,29.2,00.0,39.0,31.7,09.8,0000.0,0001.22,0000.58,0000.33
2021-11-29 01:57:00,,0829.7,5.02,0.00,30.1,29.2,00.0,39.0,31.8,09.8,0000.0,0001.29,0000.60,0000.34
2021-11-29 01:58:00,,0829.7,5.00,0.00,30.1,29.2,00.0,39.0,31.7,09.8,0000.0,0001.41,0000.61,0000.34
2021-11-29 01:59:00,,0829.8,4.99,0.00,30.1,29.2,00.0,39.0,31.7,09.8,0000.0,0001.50,0000.59,0000.34
